DELTA 1 DEB

基本信息
目录编号:
37661
目录名称:
DELTA 1 DEB
国际标识:
1978-026JY
轨道中心:
EARTH
物体状态:
在轨
发射日期:
1978-03-05 UTC
轨道信息
数据来源: 国际轨道数据
星历时间: 2026-09-10T16:07:13+0800
半长轴: 7513.959km
偏心率: 0.0329406
轨道倾角: 98.906°
近地点辐角: 334.261°
升交点赤经: 110.147°
平近点角: 24.244°
近地点: 888.307km
远地点: 1383.337km
周期: 108.035分钟
每日圈数: 13.329061
详细信息
发射场:
AFWTR
轨道高度:
LEO
数据来源:
AOE Integration Group
参考系:
TEME
时间系统:
UTC
历元类型:
SGP4
2D轨道图
3D轨道图
轨道高度分析图
轨道倾角分析图
轨道综合分析图
查看轨道综合分析图